TERRESTAR-1

Last updated on Thu Jul 03 2025 00:02:45 GMT+0000 (Coordinated Universal Time)

1 35496U 09035A 25183.51279874 -.00000052 00000+0 00000+0 0 9992 2 35496 4.9042 48.6766 0002683 41.7601 263.9423 1.00271442 58624
UTC large
Height (km)
Speed (km/s)
/
Latitude / Longitude
Inclination (degrees)
Orbital Period (minutes)
Azimuth
Elevation
Range (km)
Doppler Factor

Next 0 passes for location: London (51.5072 / 0.1276)

Sorry there are no passes over London.